Date String (YYYY-MM-DD hh:mm:ss) UTC,Instrument flags,absolute air pressure of the measurement (hPa),sample flow rate (lpm),inlet stack bypass flow (lpm),air temperature of the measurement (°C),ambient temperature measured by the external sensor (°C),aerosol sample conditioner tube jacket temperature (°C),OPC LED temperature (°C),internal box temperature (°C),relative humidity of the measurement (%),span deviation,mass concentration of particles derived from Lorenz-Mie calculation of OPC scattering (μg/m³),mass concentration of particles derived from Lorenz-Mie calculation of OPC scattering (μg/m³),mass concentration of particles derived from Lorenz-Mie calculation of OPC scattering (μg/m³)
DateTimeUTC,F1_M11,P_M11,Q1_M11,Q2_M11,T1_M11,T2_M11,T3_M11,T4_M11,T5_M11,U1_M11,ZSPAN_M11,X2_M11,X0_M11,X1_M11
2024-05-09 17:00:00,SystemResetWarning,0833.4,5.00,000.00,025.7,025.1,000.0,033.9,027.4,019.0,0000.0,0002.17,0008.71,0001.68
2024-05-09 17:01:00,SystemResetWarning,0833.4,5.00,000.00,025.7,025.1,000.0,033.9,027.4,018.9,0000.0,0002.15,0008.61,0001.67
2024-05-09 17:02:00,SystemResetWarning,0833.4,5.01,000.00,025.7,025.1,000.0,034.0,027.5,018.4,0000.0,0002.11,0008.36,0001.67
2024-05-09 17:03:00,SystemResetWarning,0833.4,5.01,000.00,025.7,025.1,000.0,034.0,027.5,019.0,0000.0,0002.12,0008.36,0001.68
2024-05-09 17:04:00,SystemResetWarning,0833.3,4.99,000.00,025.7,025.1,000.0,034.0,027.5,019.5,0000.0,0002.06,0007.78,0001.66
2024-05-09 17:05:00,SystemResetWarning,0833.4,5.00,000.00,025.7,025.1,000.0,034.0,027.5,018.6,0000.0,0002.07,0007.75,0001.64
2024-05-09 17:06:00,SystemResetWarning,0833.4,5.00,000.00,025.7,025.2,000.0,034.0,027.5,018.2,0000.0,0002.03,0006.89,0001.63
2024-05-09 17:07:00,SystemResetWarning,0833.4,4.99,000.00,025.8,025.2,000.0,034.0,027.5,018.1,0000.0,0002.05,0007.73,0001.64
2024-05-09 17:08:00,SystemResetWarning,0833.4,5.00,000.00,025.8,025.2,000.0,034.0,027.5,018.0,0000.0,0002.04,0007.90,0001.64
2024-05-09 17:09:00,SystemResetWarning,0833.4,5.00,000.00,025.8,025.2,000.0,034.0,027.5,017.9,0000.0,0002.05,0007.88,0001.64
2024-05-09 17:10:00,SystemResetWarning,0833.4,5.01,000.00,025.8,025.2,000.0,034.0,027.6,017.9,0000.0,0002.07,0007.92,0001.64
2024-05-09 17:11:00,SystemResetWarning,0833.4,5.00,000.00,025.8,025.2,000.0,034.0,027.6,018.0,0000.0,0002.15,0007.86,0001.65
2024-05-09 17:12:00,SystemResetWarning,0833.4,4.99,000.00,025.8,025.2,000.0,034.1,027.6,017.7,0000.0,0002.18,0008.04,0001.68
2024-05-09 17:13:00,SystemResetWarning,0833.4,5.00,000.00,025.8,025.2,000.0,034.1,027.6,017.7,0000.0,0002.19,0008.02,0001.71
2024-05-09 17:14:00,SystemResetWarning,0833.4,5.00,000.00,025.8,025.3,000.0,034.1,027.6,017.5,0000.0,0002.18,0007.99,0001.73
2024-05-09 17:15:00,SystemResetWarning,0833.4,5.00,000.00,025.9,025.3,000.0,034.1,027.6,017.5,0000.0,0002.23,0007.87,0001.78
2024-05-09 17:16:00,SystemResetWarning,0833.4,4.99,000.00,025.9,025.3,000.0,034.1,027.6,017.5,0000.0,0002.25,0007.39,0001.84
2024-05-09 17:17:00,SystemResetWarning,0833.4,5.00,000.00,025.9,025.3,000.0,034.1,027.6,017.6,0000.0,0002.30,0007.48,0001.89
2024-05-09 17:18:00,SystemResetWarning,0833.4,5.00,000.00,025.9,025.3,000.0,034.1,027.7,017.5,0000.0,0002.31,0006.73,0001.92
2024-05-09 17:19:00,SystemResetWarning,0833.5,5.00,000.00,025.9,025.3,000.0,034.2,027.7,017.5,0000.0,0002.35,0006.35,0001.96
2024-05-09 17:20:00,SystemResetWarning,0833.4,5.01,000.00,025.9,025.3,000.0,034.2,027.7,017.8,0000.0,0002.37,0006.37,0001.97
2024-05-09 17:21:00,SystemResetWarning,0833.4,5.00,000.00,025.9,025.3,000.0,034.2,027.7,017.7,0000.0,0002.38,0006.35,0001.97
2024-05-09 17:22:00,SystemResetWarning,0833.4,5.00,000.00,025.9,025.4,000.0,034.2,027.7,017.7,0000.0,0002.32,0006.09,0001.97
2024-05-09 17:23:00,SystemResetWarning,0833.4,4.99,000.00,026.0,025.4,000.0,034.2,027.7,017.9,0000.0,0002.32,0005.19,0001.96
2024-05-09 17:24:00,SystemResetWarning,0833.4,5.00,000.00,026.0,025.4,000.0,034.2,027.8,017.5,0000.0,0002.34,0005.09,0001.93
2024-05-09 17:25:00,SystemResetWarning,0833.4,5.02,000.00,026.0,025.4,000.0,034.3,027.8,017.2,0000.0,0002.32,0005.60,0001.91
2024-05-09 17:26:00,SystemResetWarning,0833.4,4.99,000.00,026.0,025.4,000.0,034.2,027.8,017.4,0000.0,0002.29,0006.28,0001.88
2024-05-09 17:27:00,SystemResetWarning,0833.4,4.99,000.00,026.0,025.4,000.0,034.3,027.8,017.4,0000.0,0002.32,0006.10,0001.85
2024-05-09 17:28:00,SystemResetWarning,0833.4,5.01,000.00,026.0,025.4,000.0,034.3,027.8,017.5,0000.0,0002.28,0005.12,0001.81
2024-05-09 17:29:00,SystemResetWarning,0833.4,5.01,000.00,026.0,025.4,000.0,034.3,027.8,017.4,0000.0,0002.28,0004.86,0001.77
2024-05-09 17:30:00,SystemResetWarning,0833.4,5.00,000.00,026.0,025.4,000.0,034.3,027.8,017.6,0000.0,0002.25,0004.80,0001.75
2024-05-09 17:31:00,SystemResetWarning,0833.4,4.99,000.00,026.0,025.4,000.0,034.3,027.8,017.9,0000.0,0002.22,0004.79,0001.72
2024-05-09 17:32:00,SystemResetWarning,0833.4,4.99,000.00,026.0,025.5,000.0,034.3,027.8,017.7,0000.0,0002.18,0004.75,0001.68
2024-05-09 17:33:00,SystemResetWarning,0833.4,4.99,000.00,026.1,025.5,000.0,034.3,027.8,017.4,0000.0,0002.22,0005.01,0001.66
2024-05-09 17:34:00,SystemResetWarning,0833.4,4.99,000.00,026.1,025.5,000.0,034.3,027.8,017.5,0000.0,0002.21,0004.97,0001.66
2024-05-09 17:35:00,SystemResetWarning,0833.4,5.00,000.00,026.1,025.5,000.0,034.3,027.8,017.5,0000.0,0002.18,0004.94,0001.65
2024-05-09 17:36:00,SystemResetWarning,0833.4,5.01,000.00,026.1,025.5,000.0,034.3,027.9,017.4,0000.0,0002.19,0004.73,0001.64
2024-05-09 17:37:00,SystemResetWarning,0833.4,5.01,000.00,026.1,025.5,000.0,034.4,027.9,017.1,0000.0,0002.19,0004.01,0001.63
2024-05-09 17:38:00,SystemResetWarning,0833.4,5.01,000.00,026.1,025.5,000.0,034.4,027.9,017.1,0000.0,0002.17,0004.89,0001.63
2024-05-09 17:39:00,SystemResetWarning,0833.4,4.99,000.00,026.1,025.5,000.0,034.4,027.9,016.9,0000.0,0002.15,0006.21,0001.63
2024-05-09 17:40:00,SystemResetWarning,0833.4,5.00,000.00,026.1,025.5,000.0,034.4,027.9,017.0,0000.0,0002.11,0007.20,0001.65
2024-05-09 17:41:00,SystemResetWarning,0833.4,5.00,000.00,026.1,025.5,000.0,034.4,027.9,017.1,0000.0,0002.12,0007.57,0001.66
2024-05-09 17:42:00,SystemResetWarning,0833.4,4.99,000.00,026.2,025.6,000.0,034.4,027.9,017.1,0000.0,0002.15,0007.70,0001.68
2024-05-09 17:43:00,SystemResetWarning,0833.4,5.00,000.00,026.2,025.6,000.0,034.4,028.0,017.2,0000.0,0002.16,0007.74,0001.69
2024-05-09 17:44:00,SystemResetWarning,0833.4,5.00,000.00,026.2,025.6,000.0,034.4,028.0,017.2,0000.0,0002.13,0008.05,0001.70
2024-05-09 17:45:00,SystemResetWarning,0833.4,5.00,000.00,026.2,025.6,000.0,034.4,028.0,017.1,0000.0,0002.11,0009.25,0001.70
2024-05-09 17:46:00,SystemResetWarning,0833.4,5.00,000.00,026.2,025.6,000.0,034.4,028.0,017.2,0000.0,0002.11,0009.32,0001.71
2024-05-09 17:47:00,SystemResetWarning,0833.4,5.00,000.00,026.2,025.6,000.0,034.5,028.0,017.0,0000.0,0002.08,0009.22,0001.72
2024-05-09 17:48:00,SystemResetWarning,0833.4,5.00,000.00,026.2,025.6,000.0,034.5,028.0,017.9,0000.0,0002.06,0009.14,0001.72
2024-05-09 17:49:00,SystemResetWarning,0833.4,5.00,000.00,026.2,025.6,000.0,034.5,028.0,018.5,0000.0,0002.08,0008.87,0001.69
2024-05-09 17:50:00,SystemResetWarning,0833.4,5.00,000.00,026.3,025.7,000.0,034.5,028.0,017.9,0000.0,0002.06,0007.91,0001.67
2024-05-09 17:51:00,SystemResetWarning,0833.4,5.00,000.00,026.3,025.7,000.0,034.5,028.0,017.8,0000.0,0002.07,0007.49,0001.64
2024-05-09 17:52:00,SystemResetWarning,0833.4,5.01,000.00,026.3,025.7,000.0,034.5,028.1,017.7,0000.0,0002.07,0007.48,0001.62
2024-05-09 17:53:00,SystemResetWarning,0833.4,5.00,000.00,026.3,025.7,000.0,034.5,028.1,017.4,0000.0,0002.03,0007.62,0001.60
2024-05-09 17:54:00,SystemResetWarning,0833.4,5.01,000.00,026.3,025.7,000.0,034.5,028.0,017.4,0000.0,0002.03,0008.02,0001.61
2024-05-09 17:55:00,SystemResetWarning,0833.4,5.00,000.00,026.3,025.7,000.0,034.6,028.1,017.2,0000.0,0002.04,0008.42,0001.60
2024-05-09 17:56:00,SystemResetWarning,0833.5,5.00,000.00,026.3,025.7,000.0,034.6,028.1,016.7,0000.0,0002.05,0007.47,0001.61
2024-05-09 17:57:00,SystemResetWarning,0833.5,5.00,000.00,026.3,025.7,000.0,034.6,028.1,016.6,0000.0,0002.07,0006.96,0001.63
2024-05-09 17:58:00,SystemResetWarning,0833.4,5.00,000.00,026.3,025.7,000.0,034.6,028.1,016.6,0000.0,0002.10,0007.04,0001.65
2024-05-09 17:59:00,SystemResetWarning,0833.4,5.00,000.00,026.4,025.8,000.0,034.6,028.1,016.8,0000.0,0002.13,0007.52,0001.66
